Weather History for YSSY - October, 2012

Change the Weather History Date:

Tuesday, October 16, 2012

  Actual Average Record
Temperature  
Mean Temperature 76 °F -  
Max Temperature 93 °F 74 °F 93 °F (2007)
Min Temperature 58 °F 58 °F 49 °F (2014)
Cooling Degree Days 10    
Growing Degree Days 26 (Base 50)    
Moisture  
Dew Point 43 °F    
Average Humidity 37    
Maximum Humidity 72    
Minimum Humidity 4    
Precipitation  
Precipitation 0.00 in 0.12 in - ()
Sea Level Pressure  
Sea Level Pressure 30.00 in    
Wind  
Wind Speed 8 mph ()    
Max Wind Speed 18 mph    
Max Gust Speed -    
Visibility 17.6 miles    
Events      
Averages and records for this station are not official NWS values.
T = Trace of Precipitation, MM = Missing Value Source: Averaged Metar Reports

Daily Weather History Graph

Daily Weather History Graph

Search for Another Location

Airport or City:

Trip Planner

Search our weather history database for the weather conditions in past years. The results will help you decide how hot, cold, wet, or windy it might be!

Date:

Astronomy

Oct. 16, 2012 Rise Set
Actual Time 6:12 AM AEDT 7:09 PM AEDT
Civil Twilight 5:47 AM AEDT 7:35 PM AEDT
Nautical Twilight 5:16 AM AEDT 8:05 PM AEDT
Astronomical Twilight 4:45 AM AEDT 8:36 PM AEDT
Moon 6:18 AM AEDT (10/16) 8:04 PM AEDT (10/16)
Length of Visible Light 13h 48m
Length of Day
12h 56m
New Moon, 0% of the Moon is Illuminated
Oct 16
New Moon
Oct 22
First Quarter
Oct 30
Full
Nov 7
Last Quarter
Nov 14
New

Hourly Weather History & Observations

Time (AEDT) Temp. Dew Point Humidity Pressure Visibility Wind Dir Wind Speed Gust Speed Precip Events Conditions
12:00 AM 63 °F 52 °F 59% 30.14 in 16 mi NW 2.3 mph - -   Haze
12:00 AM 62.6 °F 51.8 °F 68% 30.12 in - NW 2.3 mph - N/A   Clear
12:30 AM 62.6 °F 51.8 °F 68% 30.12 in - WNW 4.6 mph - N/A   Clear
1:00 AM 62.6 °F 51.8 °F 68% 30.12 in - North 5.8 mph - N/A   Clear
1:30 AM 62.6 °F 51.8 °F 68% 30.09 in - North 8.1 mph - N/A   Clear
2:00 AM 62 °F 51 °F 59% 30.11 in - North 8.1 mph - -  
2:00 AM 62.6 °F 51.8 °F 68% 30.09 in - North 8.1 mph - N/A   Clear
2:30 AM 62.6 °F 51.8 °F 68% 30.09 in - NW 6.9 mph - N/A   Clear
3:00 AM 60.8 °F 51.8 °F 72% 30.09 in - NW 6.9 mph - N/A   Clear
3:30 AM 60.8 °F 50.0 °F 68% 30.06 in - NW 8.1 mph - N/A   Clear
4:00 AM 60.8 °F 50.0 °F 68% 30.06 in - NW 9.2 mph - N/A   Clear
4:30 AM 59.0 °F 50.0 °F 72% 30.06 in - NNW 9.2 mph - N/A   Clear
5:00 AM 60 °F 49 °F 59% 30.09 in - NW 6.9 mph - -  
5:00 AM 60.8 °F 50.0 °F 68% 30.06 in - NW 6.9 mph - N/A   Clear
5:30 AM 60.8 °F 46.4 °F 59% 30.06 in - NW 6.9 mph - N/A   Clear
6:00 AM 61 °F 47 °F 49% 30.09 in 19 mi NW 9.2 mph - -   Partly Cloudy
6:00 AM 60.8 °F 46.4 °F 59% 30.06 in - NW 9.2 mph - N/A   Clear
6:30 AM 60.8 °F 46.4 °F 59% 30.06 in - WNW 9.2 mph - N/A   Clear
7:00 AM 62.6 °F 46.4 °F 55% 30.06 in - NNW 5.8 mph - N/A   Clear
7:30 AM 64.4 °F 46.4 °F 52% 30.06 in - North 5.8 mph - N/A   Clear
8:00 AM 66 °F 45 °F 36% 30.09 in - NNE 4.6 mph - -  
8:00 AM 66.2 °F 44.6 °F 46% 30.06 in - NNE 4.6 mph - N/A   Clear
8:30 AM 68.0 °F 44.6 °F 43% 30.06 in - NW 8.1 mph - N/A   Clear
9:00 AM 69 °F 46 °F 33% 30.08 in 19 mi NW 6.9 mph - -   Partly Cloudy
9:00 AM 69.8 °F 46.4 °F 43% 30.06 in - NW 6.9 mph - N/A   Clear
9:30 AM 77.0 °F 44.6 °F 32% 30.06 in - WNW 6.9 mph - N/A   Clear
10:00 AM 78.8 °F 41.0 °F 26% 30.06 in - NNW 11.5 mph - N/A   Clear
10:30 AM 82.4 °F 30.2 °F 15% 30.04 in - NW 9.2 mph - N/A   Clear
11:00 AM 85 °F 31 °F 7% 30.05 in - NW 11.5 mph - -  
11:00 AM 86.0 °F 30.2 °F 13% 30.04 in - NW 11.5 mph - N/A   Clear
11:30 AM 86.0 °F 32.0 °F 14% 30.04 in - NW 15.0 mph - N/A   Clear
12:00 PM 88 °F 32 °F 7% 30.02 in 19 mi NW 13.8 mph - -   Partly Cloudy
12:00 PM 87.8 °F 32.0 °F 14% 30.01 in - NW 13.8 mph - N/A   Clear
12:30 PM 89.6 °F 28.4 °F 11% 30.01 in - NW 15.0 mph - N/A   Clear
1:00 PM 89.6 °F 28.4 °F 11% 29.98 in - NW 12.7 mph - N/A   Clear
1:30 PM 89.6 °F 26.6 °F 10% 29.98 in - WNW 12.7 mph - N/A   Clear
2:00 PM 93 °F 28 °F 4% 29.98 in - NNW 15.0 mph - -  
2:00 PM 93.2 °F 28.4 °F 10% 29.98 in - NNW 15.0 mph - N/A   Clear
2:30 PM 93.2 °F 28.4 °F 10% 29.95 in - NNW 8.1 mph - N/A   Clear
3:00 PM 92 °F 23 °F 4% 29.94 in 19 mi SE 4.6 mph - -   Partly Cloudy
3:02 PM 93.2 °F 23.0 °F 8% 29.92 in - ESE 4.6 mph - N/A   Clear
3:30 PM 93.2 °F 21.2 °F 7% 29.92 in - NW 12.7 mph - N/A   Clear
4:00 PM 93.2 °F 21.2 °F 7% 29.89 in - NNW 11.5 mph - N/A   Clear
4:30 PM 86.0 °F 41.0 °F 20% 29.89 in - NE 18.4 mph - N/A   Clear
5:00 PM 84 °F 43 °F 14% 29.89 in - NE 17.3 mph - -  
5:00 PM 84.2 °F 42.8 °F 23% 29.89 in - NE 17.3 mph - N/A   Clear
5:30 PM 82.4 °F 46.4 °F 28% 29.89 in - NE 17.3 mph - N/A   Clear
6:00 PM 79 °F 50 °F 26% 29.90 in 19 mi NE 18.4 mph - -   Partly Cloudy
6:00 PM 78.8 °F 50.0 °F 36% 29.89 in - NE 18.4 mph - N/A   Clear
6:30 PM 78.8 °F 50.0 °F 36% 29.89 in - NE 15.0 mph - N/A   Clear
7:00 PM 77.0 °F 48.2 °F 36% 29.89 in - NNE 13.8 mph - N/A   Clear
7:30 PM 75.2 °F 48.2 °F 38% 29.89 in - NNE 12.7 mph - N/A   Clear
8:00 PM 74 °F 51 °F 33% 29.93 in - NNE 10.4 mph - -  
8:00 PM 73.4 °F 50.0 °F 44% 29.92 in - NNE 10.4 mph - N/A   Clear
8:30 PM 75.2 °F 50.0 °F 41% 29.92 in - NE 6.9 mph - N/A   Clear
9:00 PM 75 °F 52 °F 33% 29.94 in 12 mi NNE 5.8 mph - -   Haze
9:00 PM 75.2 °F 51.8 °F 44% 29.92 in - NNE 5.8 mph - N/A   Clear
9:30 PM 75.2 °F 51.8 °F 44% 29.92 in - North 4.6 mph - N/A   Clear
10:00 PM 78.8 °F 48.2 °F 34% 29.92 in - North 6.9 mph - N/A   Clear
10:30 PM 78.8 °F 44.6 °F 30% 29.92 in - North 10.4 mph - N/A   Clear
11:00 PM 77.0 °F 44.6 °F 32% 29.89 in - North 9.2 mph - N/A   Clear
11:30 PM 77.0 °F 44.6 °F 32% 29.89 in - North 9.2 mph - N/A   Clear